Hourly Data Report for October 05, 2016

All times are specified in Local Standard Time (LST). Add 1 hour to adjust for Daylight Saving Time where and when it is observed.

OTTAWA INTL A
ONTARIO

45°19'00.000" N
75°40'00.000" W
114.90 m
6106001
71628
YOW

Download Data

Hourly Data (October 2016)
Hourly Data Report for October 5, 2016
Temp Definition
°C
Dew Point Temp Definition
°C
Rel Hum Definition
%
Wind Dir Definition
10's deg

Wind Spd Definition
km/h
Visibility Definition
km
Stn Press Definition
kPa
Hmdx Definition


Wind Chill Definition


Weather Definition


TIME
00:00 8.4 7.0 91 6 7 24.1 101.38     LegendNANA
01:00 8.2 7.0 92 4 8 24.1 101.37     Mainly Clear
02:00 10.2 8.7 90 8 8 24.1 101.34     LegendNANA
03:00 10.3 8.7 90 6 9 24.1 101.35     LegendNANA
04:00 8.0 7.3 95 5 9 24.1 101.34     Clear
05:00 7.8 7.1 95 7 6 24.1 101.37     LegendNANA
06:00 8.7 8.1 96 9 12 24.1 101.41     LegendNANA
07:00 9.6 8.8 95 11 13 24.1 101.41     Mainly Clear
08:00 11.9 10.7 92 8 5 12.9 101.46     LegendNANA
09:00 13.4 11.1 86 4 8 24.1 101.48     LegendNANA
10:00 16.4 12.4 77 6 9 24.1 101.43     Mainly Clear
11:00 18.3 13.0 71 12 5 24.1 101.37     LegendNANA
12:00 19.2 13.0 67 13 8 24.1 101.30     LegendNANA
13:00 19.4 13.4 68 13 8 24.1 101.22     Mostly Cloudy
14:00 20.8 12.6 59 20 4 24.1 101.15     LegendNANA
15:00 20.7 12.5 59 17 10 24.1 101.07     LegendNANA
16:00 18.1 12.4 69 15 9 24.1 101.02     Mainly Clear
17:00 18.1 11.7 66 19 5 24.1 101.03     LegendNANA
18:00 15.0 11.1 77 17 6 24.1 101.03     LegendNANA
19:00 13.9 11.1 83 15 7 24.1 101.03     Mainly Clear
20:00 13.7 10.7 82 13 9 24.1 100.99     LegendNANA
21:00 12.7 10.8 88 14 12 24.1 100.97     LegendNANA
22:00 13.2 10.9 86 14 14 24.1 100.97     Clear
23:00 12.2 10.8 91 14 14 24.1 100.97     LegendNANA

Notes on Data Quality.

Legend

  • E = Estimated
  • M = Missing
  • NA = Not Available
Date modified: